FW2439 Weather Reports


time (UTC)temp
C
wind
direction
speed
KPH
gust
KPH
rain 1hr
cm
rain 24hr
cm
rain mn
cm
humidity
%
barometer
mb
20260904094557 22 222 0.0 0.0 0.00 0.00 0.00 98 1014.8
20260904093055 22 222 0.0 0.0 0.00 0.00 0.00 98 1014.6
20260904091554 22 222 0.0 0.0 0.00 0.00 0.00 98 1014.5
20260904090053 22 222 0.0 0.0 0.00 0.00 0.00 98 1014.5
20260904084559 22 222 0.0 0.0 0.00 0.00 0.00 98 1014.5
20260904083053 23 222 0.0 0.0 0.00 0.00 0.00 98 1014.4
20260904081551 23 222 0.0 0.0 0.00 0.00 0.00 97 1014.3
20260904080110 23 222 0.0 0.0 0.00 0.00 0.00 97 1014.3
20260904074548 23 222 0.0 0.0 0.00 0.00 0.00 97 1014.3
20260904073046 23 222 0.0 0.0 0.00 0.00 0.00 96 1014.4
20260904071545 23 222 0.0 0.0 0.00 0.00 0.00 96 1014.3
20260904070050 23 222 0.0 0.0 0.00 0.00 0.00 96 1014.2
20260904064542 23 222 0.0 0.0 0.00 0.00 0.00 96 1014.3
20260904063103 23 222 0.0 0.0 0.00 0.00 0.00 95 1014.5
20260904061538 23 222 0.0 0.0 0.00 0.00 0.00 94 1014.4
20260904060042 23 222 0.0 0.0 0.00 0.00 0.00 94 1014.4
20260904054540 23 222 0.0 0.0 0.00 0.00 0.00 94 1014.5
20260904053043 24 222 0.0 0.0 0.00 0.00 0.00 93 1014.5
20260904051530 24 222 0.0 0.0 0.00 0.00 0.00 92 1014.5
20260904050027 24 222 0.0 0.0 0.00 0.00 0.00 92 1014.6
20260904044534 24 222 0.0 0.0 0.00 0.00 0.00 91 1014.5
20260904043037 25 222 0.0 0.0 0.00 0.00 0.00 91 1014.7
20260904041525 25 222 0.0 0.0 0.00 0.00 0.00 91 1014.8
20260904040025 25 222 0.0 0.0 0.00 0.00 0.00 91 1014.9
20260904034526 25 222 0.0 0.0 0.00 0.00 0.00 90 1014.8
20260904033030 25 222 0.0 0.0 0.00 0.00 0.00 90 1014.9
20260904031524 25 222 0.0 0.0 0.00 0.00 0.00 89 1014.8
20260904030033 25 222 0.0 0.0 0.00 0.00 0.00 89 1015.0
20260904024524 26 222 0.0 0.0 0.00 0.00 0.00 89 1014.9
20260904023022 26 222 0.0 0.0 0.00 0.00 0.00 89 1014.8
20260904021528 26 222 0.0 0.0 0.00 0.00 0.00 88 1014.5
20260904020022 26 222 0.0 0.0 0.00 0.00 0.00 86 1014.5
20260904014521 27 222 0.0 0.0 0.00 0.00 0.00 85 1014.4
20260904013020 27 222 0.0 0.0 0.00 0.00 0.00 84 1014.3
20260904011520 28 222 0.0 0.0 0.00 0.00 0.00 82 1014.1
20260904010021 28 222 0.0 0.0 0.00 0.00 0.00 80 1013.9
20260904004525 29 222 0.0 0.0 0.00 0.00 0.00 78 1013.7
20260904003022 30 222 0.0 0.0 0.00 0.00 0.00 74 1013.6
20260904001519 31 222 0.0 0.0 0.00 0.00 0.00 73 1013.5
20260904000018 31 222 0.0 0.0 0.00 0.00 0.00 70 1013.6
20260903234518 32 222 0.0 0.0 0.00 0.00 0.00 66 1013.5
20260903233029 33 222 0.0 0.0 0.00 0.00 0.00 63 1013.4
20260903231527 34 222 0.0 0.0 0.00 0.00 0.00 61 1013.3
20260903230015 35 222 0.0 1.6 0.00 0.00 0.00 57 1013.2
20260903224514 36 257 0.0 1.6 0.00 0.00 0.00 54 1013.0
20260903223013 37 283 0.0 3.2 0.00 0.00 0.00 50 1013.1
20260903221513 37 228 0.0 3.2 0.00 0.00 0.00 52 1013.1
20260903220012 37 264 1.6 4.8 0.00 0.00 0.00 49 1013.0
20260903214510 37 346 1.6 6.4 0.00 0.00 0.00 47 1013.0
20260903213008 37 243 1.6 6.4 0.00 0.00 0.00 48 1013.1
20260903211507 37 259 0.0 4.8 0.00 0.00 0.00 51 1013.2
20260903210005 37 356 1.6 6.4 0.00 0.00 0.00 48 1013.4
20260903204501 37 222 4.8 9.7 0.00 0.00 0.00 48 1013.7
20260903203058 37 311 1.6 6.4 0.00 0.00 0.00 48 1013.8
20260903201556 37 23 1.6 6.4 0.00 0.00 0.00 48 1014.0
20260903200111 37 231 1.6 6.4 0.00 0.00 0.00 54 1014.3
20260903194551 36 233 1.6 9.7 0.00 0.00 0.00 52 1014.3
20260903193046 36 228 0.0 4.8 0.00 0.00 0.00 55 1014.7
20260903191544 35 265 0.0 3.2 0.00 0.00 0.00 60 1014.8
20260903190042 35 264 0.0 3.2 0.00 0.00 0.00 54 1015.0
20260903184545 35 225 1.6 4.8 0.00 0.00 0.00 55 1015.1
20260903183046 35 220 1.6 4.8 0.00 0.00 0.00 57 1015.2
20260903181541 34 261 0.0 1.6 0.00 0.00 0.00 60 1015.3
20260903180042 35 340 1.6 4.8 0.00 0.00 0.00 55 1015.4
20260903174536 35 236 0.0 3.2 0.00 0.00 0.00 59 1015.5
20260903173034 35 219 0.0 4.8 0.00 0.00 0.00 59 1015.8
20260903171535 35 333 1.6 6.4 0.00 0.00 0.00 57 1016.0
20260903170040 35 228 0.0 4.8 0.00 0.00 0.00 59 1016.2
20260903164532 35 340 1.6 4.8 0.00 0.00 0.00 60 1016.4
20260903163035 35 316 0.0 4.8 0.00 0.00 0.00 63 1016.5
20260903161525 34 259 1.6 8.0 0.00 0.00 0.00 62 1016.7
20260903160024 34 316 1.6 4.8 0.00 0.00 0.00 64 1016.8
20260903154522 34 314 0.0 4.8 0.00 0.00 0.00 64 1016.9
20260903153018 34 233 0.0 1.6 0.00 0.00 0.00 65 1016.8
20260903151514 33 221 0.0 3.2 0.00 0.00 0.00 66 1016.8
20260903150013 33 283 0.0 1.6 0.00 0.00 0.00 67 1016.9
20260903144508 32 223 0.0 0.0 0.00 0.00 0.00 69 1017.0
20260903143003 32 247 0.0 0.0 0.00 0.00 0.00 73 1016.9
20260903141559 30 246 0.0 0.0 0.00 0.00 0.00 79 1016.9
20260903140106 27 247 0.0 0.0 0.00 0.00 0.00 87 1017.1
20260903134551 26 247 0.0 1.6 0.00 0.00 0.00 91 1017.2
20260903133047 25 265 0.0 1.6 0.00 0.00 0.00 96 1017.3
20260903131542 23 268 0.0 0.0 0.00 0.00 0.00 98 1017.3
20260903130045 23 268 0.0 0.0 0.00 0.00 0.00 99 1017.3
20260903124538 22 268 0.0 0.0 0.00 0.00 0.00 99 1017.3
20260903123036 22 268 0.0 0.0 0.00 0.00 0.00 99 1017.1
20260903121534 22 268 0.0 0.0 0.00 0.00 0.00 99 1017.0
20260903120036 22 268 0.0 0.0 0.00 0.00 0.00 99 1016.8
20260903114532 22 268 0.0 0.0 0.00 0.00 0.00 98 1016.7
20260903113031 22 268 0.0 0.0 0.00 0.00 0.00 98 1016.5
20260903111529 22 268 0.0 0.0 0.00 0.00 0.00 98 1016.3
20260903110029 22 268 0.0 0.0 0.00 0.00 0.00 98 1016.2
20260903104527 22 268 0.0 0.0 0.00 0.00 0.00 98 1016.1
20260903103026 22 268 0.0 0.0 0.00 0.00 0.00 98 1016.0
20260903101540 22 268 0.0 0.0 0.00 0.00 0.00 98 1016.0
20260903100032 22 268 0.0 0.0 0.00 0.00 0.00 98 1015.9